[[{"header":{"parameterUnit":"m.s-1","parameterCategory":1,"la1":30.2991,"la2":30.254,"lo1":-89.0895,"lo2":-89.0444,"dy":0.0017,"dx":0.0017,"nx":28,"ny":28,"refTime":"2023-09-03T09:00:00:Z","depth":0,"parameterNumber":2,"parameterNumberName":"U-component_of_WINDS"},"data":[0,0,0,0,0,0,0,0,0,0,0,0,0,0,0,0,0,0,0,0,0,0,0,0,0,0,0,0,0,0,0,0,0,0,0,0,0,0,0,0,0,0,0,0,0,0,0,0,0,0,0,0,0,0,0,0,0,0,-4.9816,-4.9816,0,-4.9841,-4.9841,-4.9842,-4.9774,-4.9772,-4.977,-4.9768,-4.9792,-4.9795,-4.9797,0,0,0,0,0,0,0,0,0,0,0,0,0,-4.9707,-4.9709,-4.9816,-4.9816,-4.9816,-4.9841,-4.9841,-4.9842,-4.9775,-4.9772,-4.9769,-4.9767,-4.9791,-4.9794,-4.9798,0,0,0,0,0,0,0,0,0,0,0,0,0,-4.9745,-4.971,-4.9816,-4.9786,-4.9783,-4.9841,-4.9841,-4.9842,-4.9775,-4.9772,-4.9769,-4.9766,-4.979,-4.9794,-4.9798,-4.9885,0,0,-4.981,-4.9812,0,0,0,0,0,0,0,0,-4.9743,-4.9749,-4.979,-4.9788,-4.9785,-4.9801,-4.9812,-4.9856,-4.9776,-4.9778,-4.9768,-4.9764,-4.9798,-4.9801,-4.9812,-4.9886,-4.9887,-4.981,-4.9813,-4.9814,-4.9815,0,0,0,0,0,0,0,-4.9741,-4.9748,-4.9826,-4.979,-4.9788,-4.977,-4.9772,-4.982,-4.9805,-4.9778,-4.9773,-4.9777,-4.9796,-4.9809,-4.9812,-4.9888,-4.981,-4.9814,-4.9816,-4.9818,-5.0032,-5.0035,0,0,0,0,0,0,-4.9742,-4.9746,-4.9825,-4.9826,-4.9756,-4.9775,-4.9777,-4.9799,-4.9804,-4.9802,-4.978,-4.9774,-4.9804,-4.9808,-4.9813,-4.9913,-4.9814,-4.9818,-4.982,-5.0028,-5.0032,-5.0036,0,0,0,0,0,0,-4.974,-4.975,-4.9824,-4.9785,-4.9793,-4.978,-4.9806,-4.9801,-4.9814,-4.9806,-4.9803,-4.9796,-4.9801,-4.9808,-4.9867,-4.9913,-4.982,-4.9823,-5.0024,-5.003,-5.0034,-5.0115,0,0,0,0,0,0,-4.9737,-4.9749,-4.9783,-4.9786,-4.9795,-4.9878,-4.9808,-4.9804,-4.9821,-4.9814,-4.982,-4.9818,-4.9799,-4.9862,-4.9871,-4.9916,-4.9826,-5.002,-5.0027,-5.0033,-5.0108,-5.0122,-5.0134,0,0,0,0,0,-4.9733,-4.9805,-4.9785,-4.9795,-4.9837,-4.9881,-4.9886,-4.9864,-4.9825,-4.9858,-4.9853,-4.9818,-4.9907,-4.9868,-4.9878,-4.9926,-5.0017,-5.0025,-5.0032,-5.0102,-5.0119,-5.0133,0,0,0,0,0,0,-4.9806,-4.9804,-4.9782,-4.9857,-4.987,-4.987,-4.991,-4.9883,-4.9906,-4.9898,-4.9869,-4.9871,-4.9935,-4.9937,-4.9894,-5.0009,-4.9955,-4.9965,-5.0005,-5.0021,-5.0034,-5.0031,-4.983,0,0,0,0,0,-4.9831,-4.9868,-4.9864,-4.993,-4.9938,-4.9923,-4.9942,-4.9923,-4.9935,-4.994,-4.9939,-4.9951,-4.9981,-5.0002,-5.003,-5.0109,-5.0108,-5.0146,-5.0159,-5.017,-5.0178,-5.0217,-5.0233,-5.0061,-5.0061,-5.0061,0,0,-4.9882,-4.9886,-4.9911,-4.9945,-4.9952,-4.999,-4.9928,-4.9971,-4.9997,-4.9946,-5.0001,-5.0002,-5.0013,-5.0082,-5.0113,-5.0086,-5.0226,-5.018,-5.0188,-5.019,-5.0227,-5.0243,-5.0257,-5.0066,-5.0065,-5.0064,0,0,-4.9994,-5.0002,-5.0056,-5.0066,-5.0078,-5.0068,-5.0081,-5.0086,-5.0083,-5.0139,-5.0101,-5.0133,-5.0187,-5.0195,-5.0207,-5.0323,-5.0291,-5.0333,-5.0399,-5.0438,-5.0452,-5.0464,-5.0502,-5.0516,-5.0342,-5.0342,-5.0342,0,-5.0056,-5.0111,-5.0088,-5.0133,-5.0148,-5.0104,-5.0158,-5.0168,-5.0189,-5.02,-5.017,-5.0235,-5.0241,-5.031,-5.0338,-5.035,-5.0363,-5.033,-5.0452,-5.0464,-5.0474,-5.051,-5.0525,-5.0347,-5.0346,-5.0346,-5.0345,0,-5.0185,-5.0224,-5.0267,-5.0288,-5.0308,-5.0358,-5.0341,-5.0364,-5.0345,-5.0337,-5.0394,-5.0399,-5.0425,-5.0441,-5.0423,-5.0508,-5.049,-5.0457,-5.0402,-5.0496,-5.0529,-5.0543,-5.0354,-5.0352,-5.035,-5.0349,0,0,-5.0341,-5.0349,-5.0365,-5.0373,-5.0384,-5.0413,-5.046,-5.0487,-5.0506,-5.0523,-5.056,-5.0607,-5.0575,-5.0589,-5.0571,-5.0606,-5.0694,-5.0568,-5.0567,-5.0588,-5.0784,-5.0807,-5.0823,-5.0674,-5.0677,-5.0679,-5.0782,0,-5.0449,-5.0529,-5.0509,-5.0589,-5.0623,-5.0582,-5.0623,-5.0634,-5.0629,-5.0657,-5.0651,-5.0683,-5.0641,-5.0649,-5.0682,-5.0676,-5.0732,-5.0669,-5.0706,-5.0707,-5.07,-5.0841,-5.0865,-5.0963,-5.0795,-5.0798,-5.0799,0,-5.0584,-5.0606,-5.0688,-5.0692,-5.0706,-5.0743,-5.0765,-5.0793,-5.0804,-5.0797,-5.0813,-5.0788,-5.0833,-5.0781,-5.0841,-5.0799,-5.0813,-5.0813,-5.0816,-5.0816,-5.0756,-5.0841,-5.0994,-5.1007,-5.082,-5.0818,-5.0817,0,-5.0686,-5.0736,-5.0791,-5.08,-5.0806,-5.0833,-5.0837,-5.0845,-5.0862,-5.0881,-5.0891,-5.0917,-5.0929,-5.0949,-5.0931,-5.0895,-5.0994,-5.094,-5.0988,-5.0988,-5.1007,-5.1006,-5.116,-5.1023,-5.1023,-5.1022,-5.1022,0,-5.0806,-5.0857,-5.0836,-5.0869,-5.0925,-5.0903,-5.0958,-5.0958,-5.0965,-5.0997,-5.0965,-5.0995,-5.0972,-5.1,-5.0987,-5.1037,-5.1044,-5.1039,-5.1034,-5.104,-5.104,-5.1046,-5.1038,-5.1026,-5.1025,-5.1025,-5.1024,0,-5.0927,-5.0916,-5.0972,-5.0974,-5.0976,-5.1017,-5.1018,-5.1048,-5.1042,-5.1082,-5.109,-5.1079,-5.1111,-5.1096,-5.1129,-5.112,-5.1184,-5.1173,-5.118,-5.1176,-5.1223,-5.1218,-5.1384,-5.1404,-5.1257,-5.1259,-5.126,0,-5.1003,-5.1041,-5.1047,-5.1066,-5.1073,-5.1104,-5.1121,-5.1101,-5.112,-5.1135,-5.1163,-5.1192,-5.1213,-5.1265,-5.126,-5.1284,-5.1271,-5.1327,-5.1274,-5.1278,-5.1267,-5.1264,-5.1266,-5.1337,-5.1339,-5.134,-5.1341,0,-5.1138,-5.113,-5.1156,-5.118,-5.1201,-5.1218,-5.1233,-5.1251,-5.1231,-5.1253,-5.1285,-5.1302,-5.1336,-5.1364,-5.1385,-5.1388,-5.1361,-5.1359,-5.137,-5.1375,-5.1376,-5.1373,-5.1206,-5.1354,-5.1353,-5.1352,-5.1351,-5.1351,-5.1236,-5.1268,-5.1276,-5.1306,-5.1315,-5.1329,-5.1357,-5.1354,-5.138,-5.1406,-5.1393,-5.1429,-5.1438,-5.1464,-5.1471,-5.1499,-5.1476,-5.1494,-5.1497,-5.1501,-5.1506,-5.1375,-5.1503,-5.1503,-5.1502,-5.1502,-5.1502,0,-5.1366,-5.137,-5.1398,-5.1419,-5.1442,-5.1416,-5.1431,-5.1451,-5.1484,-5.1495,-5.1517,-5.1552,-5.1579,-5.1576,-5.1601,-5.1623,-5.1611,-5.163,-5.1627,-5.1627,-5.1527,-5.1512,-5.1639,-5.1639,-5.1639,-5.1639,-5.1639,-5.1639,-5.1436,-5.1487,-5.148,-5.1535,-5.1538,-5.1573,-5.1584,-5.1597,-5.1605,-5.1646,-5.1669,-5.1667,-5.1671,-5.1696,-5.1719,-5.1718,-5.1727,-5.175,-5.1743,-5.1648,-5.1635,-5.1621,-5.1608,-5.1753,-5.1753,-5.1841,-5.1842,-5.1842]},{"header":{"parameterUnit":"m.s-1","parameterCategory":1,"la1":30.2991,"la2":30.254,"lo1":-89.0895,"lo2":-89.0444,"dy":0.0017,"dx":0.0017,"nx":28,"ny":28,"refTime":"2023-09-03T09:00:00:Z","depth":0,"parameterNumber":3,"parameterNumberName":"V-component_of_WINDS"},"data":[0,0,0,0,0,0,0,0,0,0,0,0,0,0,0,0,0,0,0,0,0,0,0,0,0,0,0,0,0,0,0,0,0,0,0,0,0,0,0,0,0,0,0,0,0,0,0,0,0,0,0,0,0,0,0,0,0,0,4.4723,4.4724,0,4.4759,4.4759,4.476,4.4673,4.467,4.4667,4.4665,4.4698,4.4701,4.4705,0,0,0,0,0,0,0,0,0,0,0,0,0,4.4576,4.4579,4.4723,4.4724,4.4724,4.4759,4.4759,4.476,4.4673,4.467,4.4666,4.4663,4.4697,4.4701,4.4705,0,0,0,0,0,0,0,0,0,0,0,0,0,4.4629,4.458,4.4723,4.4685,4.4682,4.4759,4.4759,4.476,4.4674,4.467,4.4666,4.4662,4.4695,4.47,4.4706,4.482,0,0,4.4721,4.4724,0,0,0,0,0,0,0,0,4.4626,4.4634,4.469,4.4688,4.4685,4.4707,4.472,4.478,4.4675,4.4677,4.4664,4.466,4.4704,4.4708,4.4724,4.4821,4.4823,4.4722,4.4725,4.4727,4.4729,0,0,0,0,0,0,0,4.4622,4.4632,4.4737,4.4691,4.4688,4.4665,4.4668,4.4731,4.4713,4.4676,4.467,4.4676,4.4702,4.4719,4.4724,4.4823,4.4722,4.4726,4.4729,4.4731,4.5016,4.502,0,0,0,0,0,0,4.4624,4.463,4.4736,4.4738,4.4645,4.4671,4.4674,4.4704,4.4712,4.4709,4.4679,4.4672,4.4712,4.4718,4.4725,4.4858,4.4727,4.4732,4.4735,4.5011,4.5017,4.5021,0,0,0,0,0,0,4.4621,4.4634,4.4734,4.4682,4.4693,4.4678,4.4712,4.4707,4.4724,4.4714,4.471,4.4701,4.4709,4.4718,4.4797,4.4858,4.4734,4.4739,4.5006,4.5013,4.5019,4.5127,0,0,0,0,0,0,4.4617,4.4634,4.4678,4.4684,4.4697,4.4807,4.4716,4.4711,4.4734,4.4724,4.4733,4.4731,4.4707,4.479,4.4802,4.4863,4.4743,4.5,4.5009,4.5017,4.5118,4.5136,4.5152,0,0,0,0,0,4.4612,4.4706,4.4681,4.4694,4.4751,4.4811,4.4818,4.4789,4.4739,4.4783,4.4776,4.473,4.485,4.4799,4.4812,4.4875,4.4996,4.5006,4.5016,4.511,4.5133,4.5152,0,0,0,0,0,0,4.4706,4.4706,4.4678,4.4777,4.4795,4.4796,4.485,4.4815,4.4846,4.4836,4.4798,4.4801,4.4887,4.4889,4.4832,4.4986,4.4914,4.4928,4.4981,4.5003,4.502,4.5016,4.4747,0,0,0,0,0,4.4739,4.4788,4.4785,4.4873,4.4883,4.4866,4.489,4.4867,4.4884,4.489,4.489,4.4907,4.4948,4.4976,4.5013,4.5118,4.5118,4.5168,4.5186,4.52,4.5211,4.5266,4.5288,4.5054,4.5054,4.5054,0,0,4.4805,4.4812,4.4845,4.4892,4.4903,4.4954,4.4872,4.493,4.4966,4.4898,4.4973,4.4974,4.499,4.5083,4.5124,4.5087,4.5276,4.5213,4.5224,4.5228,4.5279,4.5301,4.5321,4.5061,4.506,4.5059,0,0,4.4953,4.4964,4.5037,4.505,4.5069,4.5057,4.5075,4.5082,4.508,4.5155,4.5105,4.5148,4.522,4.5233,4.525,4.5404,4.5363,4.5417,4.5507,4.5561,4.5579,4.5595,4.5649,4.5669,4.5429,4.5429,4.5429,0,4.5033,4.5109,4.5079,4.514,4.5162,4.5104,4.5178,4.5192,4.5221,4.5237,4.5196,4.5286,4.5293,4.5387,4.5425,4.5441,4.5459,4.5415,4.5579,4.5595,4.561,4.566,4.5681,4.5436,4.5435,4.5434,4.5434,0,4.5206,4.526,4.5317,4.5348,4.5376,4.5443,4.5422,4.5454,4.5429,4.5421,4.5497,4.5504,4.5542,4.5563,4.5538,4.5654,4.5631,4.5586,4.5513,4.5639,4.5686,4.5705,4.5445,4.5442,4.544,4.5439,0,0,4.5412,4.5427,4.5448,4.5461,4.5478,4.5518,4.5583,4.562,4.5648,4.5671,4.5722,4.5786,4.5744,4.5763,4.5739,4.5787,4.5907,4.5736,4.5736,4.5766,4.6034,4.6067,4.609,4.5881,4.5885,4.5888,4.6032,0,4.5557,4.5668,4.5644,4.5753,4.5801,4.5748,4.5803,4.5819,4.5814,4.5853,4.5846,4.5891,4.5833,4.5844,4.5889,4.5883,4.596,4.5873,4.5927,4.593,4.5923,4.6115,4.6149,4.6285,4.605,4.6054,4.6056,0,4.574,4.5771,4.5886,4.5894,4.5914,4.5965,4.5997,4.6036,4.6053,4.6045,4.6067,4.6034,4.6097,4.6025,4.611,4.6051,4.6072,4.6073,4.6077,4.608,4.5999,4.6121,4.6328,4.6348,4.6085,4.6082,4.608,0,4.5878,4.5948,4.6025,4.6038,4.6051,4.6087,4.6094,4.6107,4.6131,4.616,4.6175,4.621,4.6229,4.6257,4.6234,4.6184,4.6323,4.6249,4.6317,4.6318,4.6347,4.6345,4.6559,4.6364,4.6363,4.6363,4.6363,0,4.6041,4.6112,4.6087,4.6134,4.6212,4.6183,4.6261,4.6262,4.6274,4.6319,4.6276,4.6319,4.6288,4.6328,4.6311,4.6384,4.6393,4.6387,4.6382,4.6391,4.6391,4.6402,4.6392,4.6368,4.6367,4.6366,4.6365,0,4.6206,4.6192,4.6273,4.6279,4.6282,4.6339,4.6344,4.6387,4.6379,4.6437,4.6449,4.6436,4.6482,4.6463,4.6511,4.6499,4.6592,4.6574,4.6586,4.6581,4.665,4.6643,4.6877,4.6906,4.6693,4.6696,4.6697,0,4.6311,4.6365,4.6377,4.6405,4.6415,4.6461,4.6486,4.6459,4.6487,4.651,4.6551,4.6593,4.6625,4.6701,4.6695,4.6731,4.6713,4.6793,4.6718,4.6725,4.6713,4.6709,4.6714,4.6807,4.681,4.6812,4.6813,0,4.6497,4.6488,4.6526,4.6562,4.6594,4.6621,4.6644,4.6669,4.6643,4.6676,4.6723,4.6749,4.6798,4.684,4.6873,4.6878,4.6842,4.6837,4.6855,4.6863,4.6868,4.6865,4.6625,4.6831,4.683,4.6828,4.6827,4.6827,4.6634,4.6679,4.6695,4.6739,4.6754,4.6777,4.6818,4.6816,4.6854,4.6893,4.6875,4.6929,4.6944,4.6984,4.6995,4.7036,4.7005,4.703,4.7037,4.7043,4.7051,4.6863,4.7042,4.7042,4.7041,4.7041,4.704,0,4.6817,4.6825,4.6866,4.69,4.6935,4.6899,4.6923,4.6953,4.7002,4.702,4.7053,4.7106,4.7147,4.7145,4.7182,4.7216,4.72,4.7226,4.7223,4.7224,4.7078,4.7059,4.7239,4.7239,4.7238,4.7238,4.7238,4.7238,4.6916,4.6991,4.6983,4.7065,4.7071,4.7125,4.7142,4.7162,4.7176,4.7238,4.7272,4.7271,4.728,4.7318,4.7354,4.7352,4.7367,4.74,4.7392,4.7254,4.7235,4.7216,4.7197,4.7404,4.7404,4.7534,4.7536,4.7537]}]]